Medicine Lodge, KS

9:16 PM CST on December 11, 2019 (GMT -0600)
Medicine Lodge

Weather History for KP28 - October, 2019

Change the Weather History Date:

Saturday, October 19, 2019

  Actual Average Record
Temperature  
Mean Temperature 60 °F 58 °F  
Max Temperature 74 °F 70 °F 91 °F (1943)
Min Temperature 45 °F 45 °F 19 °F (1917)
Degree Days  
Heating Degree Days 5 8  
Month to date heating degree days 134 110  
Since 1 July heating degree days 134 144  
Cooling Degree Days 0 1  
Month to date cooling degree days 23 35  
Year to date cooling degree days 1837 1766  
Growing Degree Days 12 (Base 50)    
Moisture  
Dew Point 42 °F    
Average Humidity 56    
Maximum Humidity 89    
Minimum Humidity 22    
Precipitation  
Precipitation 0.00 in 0.10 in 1.60 in (1941)
Month to date precipitation 1.76 1.86  
Year to date precipitation 30.34 24.31  
Snow  
Snow 0.00 in 0.00 in - ()
Month to date snowfall 0.0 0.0  
Since 1 July snowfall 0.0 0.0  
Since 1 September snowfall 0.0 0.0  
Snow Depth 0.00 in    
Sea Level Pressure  
Sea Level Pressure 29.77 in    
Wind  
Wind Speed 9 mph (North)    
Max Wind Speed 22 mph    
Max Gust Speed 29 mph    
T = Trace of Precipitation, MM = Missing Value Source: NWS Daily Summary

Daily Weather History Graph

Daily Weather History Graph

Search for Another Location

Airport or City:

Astronomy

Oct. 19, 2019 Rise Set
Actual Time 7:45 AM CDT 6:52 PM CDT
Civil Twilight 7:19 AM CDT 7:18 PM CDT
Nautical Twilight 6:49 AM CDT 7:48 PM CDT
Astronomical Twilight 6:18 AM CDT 8:19 PM CDT
Moon 11:07 PM CDT (10/19) 1:14 PM CDT (10/19)
Length of Visible Light 11h 59m
Length of Day
11h 06m
Waning Gibbous, 69% of the Moon is Illuminated
Oct 19
Waning Gibbous
Oct 21
Last Quarter
Oct 27
New
Nov 4
First Quarter
Nov 12
Full

Hourly Weather History & Observations

Time (CDT) Temp. Dew Point Humidity Pressure Visibility Wind Dir Wind Speed Gust Speed Precip Events Conditions
12:56 AM 57.9 °F 45.0 °F 62% 29.62 in - East 4.6 mph - N/A   Unknown
1:56 AM 55.9 °F 50.0 °F 80% 29.68 in - North 6.9 mph - N/A   Unknown
2:56 AM 55.9 °F 52.0 °F 87% 29.68 in - North 9.2 mph - N/A   Unknown
3:56 AM 55.0 °F 52.0 °F 89% 29.69 in - North 6.9 mph - N/A   Unknown
4:56 AM 53.1 °F 50.0 °F 89% 29.71 in - NNW 9.2 mph - N/A   Unknown
5:56 AM 52.0 °F 48.0 °F 86% 29.74 in - NNW 11.5 mph - N/A   Unknown
6:56 AM 51.1 °F 48.0 °F 89% 29.77 in - NNW 11.5 mph - N/A   Unknown
7:56 AM 50.0 °F 46.9 °F 89% 29.79 in - NNW 9.2 mph - N/A   Unknown
9:56 AM 57.9 °F 46.9 °F 67% 29.83 in - North 13.8 mph - N/A   Unknown
10:56 AM 62.1 °F 46.0 °F 56% 29.84 in - North 15.0 mph 24.2 mph N/A   Unknown
11:56 AM 66.0 °F 44.1 °F 45% 29.84 in - NNW 16.1 mph 24.2 mph N/A   Unknown
12:56 PM 69.1 °F 39.9 °F 35% 29.83 in - North 13.8 mph 23.0 mph N/A   Unknown
1:56 PM 72.0 °F 37.0 °F 28% 29.80 in - North 13.8 mph 23.0 mph N/A   Unknown
3:56 PM 73.9 °F 34.0 °F 23% 29.78 in - North 9.2 mph - N/A   Unknown
4:56 PM 73.0 °F 32.0 °F 22% 29.78 in - NNE 8.1 mph - N/A   Unknown
5:56 PM 71.1 °F 30.9 °F 23% 29.78 in - NNE 6.9 mph - N/A   Unknown
6:56 PM 66.0 °F 33.1 °F 29% 29.79 in - ENE 4.6 mph - N/A   Unknown
8:56 PM 54.0 °F 37.0 °F 53% 29.83 in - North 3.5 mph - N/A   Unknown
10:56 PM 53.1 °F 36.0 °F 52% 29.82 in - ESE 3.5 mph - N/A   Unknown
11:56 PM 53.1 °F 36.0 °F 52% 29.81 in - ESE 5.8 mph - N/A   Unknown